Location: Ash Swamp
(41.5170°N, 74.6157°W)
Time: 04:42:22
(UTC+00:00)

Atlas Centaur 2 - Visible Passes

Search period start: 31 October 2020 00:00
Search period end: 10 November 2020 00:00
Orbit: 459 x 1310 km, 30.4° (Epoch: 30 October)

Date Brightness Start Highest point End Pass type
(mag) Time Alt. Az. Time Alt. Az. Time Alt. Az.
31 Oct 4.0 00:06:31 10° WSW 00:13:56 36° S 00:16:44 29° SSE visible
31 Oct 5.0 01:56:26 10° WSW 01:59:19 18° SW 01:59:19 18° SW visible
31 Oct 4.1 22:13:48 10° WSW 22:20:43 37° S 22:28:18 10° ESE visible
01 Nov 4.1 00:02:32 10° WSW 00:09:46 35° S 00:13:04 26° SSE visible
01 Nov 5.0 01:52:41 10° WSW 01:55:41 17° SW 01:55:41 17° SW visible
01 Nov 4.1 22:09:46 10° WSW 22:16:35 37° S 22:24:08 10° ESE visible
01 Nov 4.2 23:58:34 10° WSW 00:05:35 32° SSW 00:09:27 23° SSE visible
02 Nov 5.0 01:49:05 10° WSW 01:52:04 16° SW 01:52:04 16° SW visible
02 Nov 4.3 23:54:42 10° WSW 00:01:25 30° SSW 00:05:56 19° SSE visible
03 Nov 5.1 01:45:44 10° WSW 01:48:33 14° SW 01:48:33 14° SW visible
03 Nov 4.5 23:50:53 10° WSW 23:57:15 27° SSW 00:02:30 15° SSE visible
04 Nov 5.2 01:42:54 10° SW 01:45:07 12° SW 01:45:07 12° SW visible
04 Nov 4.7 23:47:10 10° WSW 23:53:04 23° SSW 23:59:11 10° SSE visible
05 Nov 4.9 23:43:35 10° WSW 23:48:54 20° SSW 23:54:35 10° SSE visible
06 Nov 5.1 23:40:12 10° WSW 23:44:44 17° SSW 23:49:35 10° SSE visible
07 Nov 5.2 23:37:10 10° SW 23:40:35 14° SSW 23:44:12 10° S visible
08 Nov 5.4 23:35:21 10° SW 23:36:27 10° SSW 23:37:34 10° SSW visible
